| time (UTC) | temp C | wind direction | speed KPH | gust KPH | rain 1hr cm | rain 24hr cm | rain mn cm | humidity % | barometer mb |
| 20260507154529 | 19 | 185 | 9.7 | 19.3 | 0.00 | 0.00 | 0.00 | 67 | 1012.4 |
| 20260507153032 | 19 | 155 | 9.7 | 19.3 | 0.00 | 0.00 | 0.00 | 65 | 1012.6 |
| 20260507151527 | 19 | 135 | 9.7 | 16.1 | 0.00 | 0.00 | 0.00 | 60 | 1012.7 |
| 20260507150025 | 19 | 169 | 8.0 | 17.7 | 0.00 | 0.00 | 0.00 | 58 | 1012.8 |
| 20260507144525 | 19 | 191 | 9.7 | 17.7 | 0.00 | 0.00 | 0.00 | 62 | 1012.9 |
| 20260507143026 | 18 | 182 | 8.0 | 25.7 | 0.00 | 0.00 | 0.00 | 63 | 1013.1 |
| 20260507141523 | 19 | 177 | 11.3 | 20.9 | 0.00 | 0.00 | 0.00 | 61 | 1013.2 |
| 20260507140027 | 18 | 148 | 9.7 | 25.7 | 0.00 | 0.00 | 0.00 | 62 | 1013.3 |
| 20260507134526 | 18 | 158 | 11.3 | 22.5 | 0.00 | 0.00 | 0.00 | 59 | 1013.2 |
| 20260507133023 | 19 | 182 | 12.9 | 22.5 | 0.00 | 0.00 | 0.00 | 62 | 1013.5 |
| 20260507131532 | 19 | 181 | 12.9 | 20.9 | 0.00 | 0.00 | 0.00 | 59 | 1013.5 |
| 20260507130020 | 19 | 163 | 11.3 | 22.5 | 0.00 | 0.00 | 0.00 | 60 | 1013.4 |
| 20260507124519 | 20 | 195 | 11.3 | 22.5 | 0.00 | 0.00 | 0.00 | 57 | 1013.3 |
| 20260507123023 | 19 | 161 | 9.7 | 20.9 | 0.00 | 0.00 | 0.00 | 59 | 1013.4 |
| 20260507121517 | 19 | 198 | 9.7 | 19.3 | 0.00 | 0.00 | 0.00 | 61 | 1013.4 |
| 20260507120014 | 19 | 167 | 9.7 | 17.7 | 0.00 | 0.00 | 0.00 | 58 | 1013.5 |
| 20260507114513 | 18 | 165 | 12.9 | 25.7 | 0.00 | 0.00 | 0.00 | 63 | 1013.5 |
| 20260507113012 | 18 | 159 | 11.3 | 19.3 | 0.00 | 0.00 | 0.00 | 62 | 1013.5 |
| 20260507111511 | 18 | 191 | 11.3 | 25.7 | 0.00 | 0.00 | 0.00 | 64 | 1013.3 |
| 20260507110013 | 18 | 191 | 12.9 | 25.7 | 0.00 | 0.00 | 0.00 | 64 | 1013.2 |
| 20260507104508 | 18 | 160 | 8.0 | 24.1 | 0.00 | 0.00 | 0.00 | 63 | 1013.1 |
| 20260507103008 | 18 | 169 | 11.3 | 17.7 | 0.00 | 0.00 | 0.00 | 64 | 1013.5 |
| 20260507101508 | 18 | 143 | 9.7 | 22.5 | 0.00 | 0.00 | 0.00 | 63 | 1013.6 |
| 20260507094603 | 18 | 222 | 9.7 | 24.1 | 0.00 | 0.00 | 0.00 | 65 | 1013.8 |
| 20260507093056 | 18 | 140 | 8.0 | 17.7 | 0.00 | 0.00 | 0.00 | 67 | 1013.8 |
| 20260507091602 | 17 | 157 | 9.7 | 17.7 | 0.00 | 0.00 | 0.00 | 69 | 1013.8 |
| 20260507090109 | 17 | 186 | 6.4 | 16.1 | 0.00 | 0.00 | 0.00 | 71 | 1013.6 |
| 20260507084545 | 17 | 169 | 6.4 | 16.1 | 0.00 | 0.00 | 0.00 | 70 | 1013.5 |
| 20260507083042 | 17 | 150 | 4.8 | 9.7 | 0.00 | 0.00 | 0.00 | 67 | 1013.4 |
| 20260507081550 | 17 | 149 | 3.2 | 8.0 | 0.00 | 0.00 | 0.00 | 66 | 1013.4 |
| 20260507080032 | 17 | 141 | 3.2 | 8.0 | 0.00 | 0.00 | 0.00 | 68 | 1013.5 |
| 20260507074531 | 16 | 160 | 4.8 | 9.7 | 0.00 | 0.00 | 0.00 | 68 | 1013.5 |
| 20260507073024 | 16 | 173 | 3.2 | 8.0 | 0.00 | 0.00 | 0.00 | 70 | 1013.6 |
| 20260507071520 | 16 | 131 | 3.2 | 9.7 | 0.00 | 0.00 | 0.00 | 73 | 1013.5 |
| 20260507070015 | 16 | 204 | 4.8 | 9.7 | 0.00 | 0.00 | 0.00 | 74 | 1013.5 |
| 20260507064513 | 15 | 160 | 1.6 | 8.0 | 0.00 | 0.00 | 0.00 | 77 | 1013.4 |
| 20260507063006 | 14 | 301 | 0.0 | 0.0 | 0.00 | 0.00 | 0.00 | 81 | 1013.3 |
| 20260507061506 | 13 | 301 | 0.0 | 0.0 | 0.00 | 0.00 | 0.00 | 85 | 1013.3 |
| 20260507054557 | 11 | 302 | 0.0 | 3.2 | 0.00 | 0.00 | 0.00 | 89 | 1013.3 |
| 20260507053049 | 10 | 302 | 0.0 | 3.2 | 0.00 | 0.00 | 0.00 | 91 | 1013.1 |
| 20260507051545 | 10 | 302 | 0.0 | 4.8 | 0.00 | 0.00 | 0.00 | 91 | 1012.8 |
| 20260507050040 | 10 | 302 | 3.2 | 6.4 | 0.00 | 0.00 | 0.00 | 91 | 1012.7 |
| 20260507044559 | 10 | 290 | 1.6 | 6.4 | 0.00 | 0.03 | 0.00 | 92 | 1012.5 |
| 20260507043052 | 9 | 327 | 1.6 | 8.0 | 0.00 | 0.03 | 0.00 | 92 | 1012.4 |
| 20260507041550 | 9 | 300 | 0.0 | 0.0 | 0.00 | 0.03 | 0.00 | 91 | 1012.4 |
| 20260507040050 | 9 | 300 | 0.0 | 6.4 | 0.00 | 0.03 | 0.00 | 91 | 1012.5 |
| 20260507034548 | 9 | 310 | 0.0 | 0.0 | 0.00 | 0.03 | 0.00 | 90 | 1012.5 |
| 20260507033044 | 10 | 310 | 0.0 | 0.0 | 0.00 | 0.03 | 0.00 | 90 | 1012.5 |
| 20260507031543 | 10 | 310 | 0.0 | 6.4 | 0.00 | 0.03 | 0.00 | 91 | 1012.7 |
| 20260507030042 | 10 | 300 | 3.2 | 6.4 | 0.00 | 0.03 | 0.00 | 91 | 1012.7 |
| 20260507024539 | 10 | 355 | 0.0 | 3.2 | 0.00 | 0.03 | 0.00 | 91 | 1012.7 |
| 20260507023038 | 10 | 355 | 1.6 | 4.8 | 0.00 | 0.03 | 0.00 | 91 | 1012.7 |
| 20260507021539 | 10 | 10 | 1.6 | 4.8 | 0.00 | 0.03 | 0.00 | 91 | 1012.7 |
| 20260507020037 | 10 | 10 | 1.6 | 4.8 | 0.00 | 0.03 | 0.00 | 91 | 1012.7 |
| 20260507014550 | 10 | 10 | 0.0 | 3.2 | 0.00 | 0.53 | 0.00 | 91 | 1012.7 |
| 20260507013037 | 10 | 10 | 0.0 | 3.2 | 0.00 | 0.53 | 0.00 | 91 | 1012.7 |
| 20260507011535 | 10 | 10 | 1.6 | 4.8 | 0.00 | 0.53 | 0.00 | 91 | 1012.7 |
| 20260507010032 | 10 | 10 | 0.0 | 3.2 | 0.00 | 0.53 | 0.00 | 91 | 1012.9 |
| 20260507004531 | 10 | 10 | 0.0 | 3.2 | 0.00 | 1.27 | 0.00 | 90 | 1013.0 |
| 20260507003029 | 10 | 10 | 0.0 | 0.0 | 0.00 | 1.27 | 0.00 | 90 | 1013.0 |
| 20260507001528 | 10 | 10 | 3.2 | 6.4 | 0.00 | 1.27 | 0.00 | 90 | 1013.0 |
| 20260507000028 | 10 | 5 | 1.6 | 4.8 | 0.00 | 1.27 | 0.00 | 90 | 1013.1 |
| 20260506234524 | 10 | 5 | 1.6 | 6.4 | 0.00 | 1.27 | 0.00 | 89 | 1013.2 |
| 20260506233023 | 10 | 333 | 0.0 | 4.8 | 0.00 | 1.27 | 0.00 | 89 | 1013.2 |
| 20260506231521 | 10 | 31 | 1.6 | 3.2 | 0.00 | 1.27 | 0.00 | 88 | 1013.2 |
| 20260506230020 | 11 | 31 | 0.0 | 6.4 | 0.00 | 1.27 | 0.00 | 88 | 1013.3 |
| 20260506224519 | 11 | 31 | 0.0 | 3.2 | 0.00 | 1.27 | 0.00 | 88 | 1013.3 |
| 20260506223017 | 11 | 31 | 0.0 | 6.4 | 0.00 | 1.27 | 0.00 | 88 | 1013.3 |
| 20260506221515 | 11 | 11 | 1.6 | 4.8 | 0.00 | 1.27 | 0.00 | 87 | 1013.3 |
| 20260506220013 | 11 | 26 | 0.0 | 4.8 | 0.00 | 1.27 | 0.00 | 87 | 1013.2 |
| 20260506214511 | 11 | 63 | 3.2 | 9.7 | 0.00 | 1.27 | 1.27 | 86 | 1013.1 |
| 20260506213014 | 12 | 46 | 3.2 | 8.0 | 0.00 | 1.27 | 1.27 | 85 | 1013.0 |
| 20260506211506 | 12 | 217 | 0.0 | 0.0 | 0.00 | 1.27 | 1.27 | 83 | 1012.9 |
| 20260506210005 | 12 | 136 | 0.0 | 3.2 | 0.00 | 1.27 | 1.27 | 83 | 1012.9 |
| 20260506204502 | 13 | 63 | 0.0 | 4.8 | 0.00 | 1.68 | 1.27 | 82 | 1012.9 |
| 20260506203104 | 13 | 63 | 0.0 | 4.8 | 0.00 | 1.68 | 1.27 | 79 | 1012.7 |
| 20260506201625 | 14 | 343 | 3.2 | 8.0 | 0.00 | 1.68 | 1.27 | 76 | 1012.6 |
| 20260506200057 | 15 | 213 | 1.6 | 9.7 | 0.00 | 1.68 | 1.27 | 75 | 1012.3 |
| 20260506194555 | 15 | 278 | 3.2 | 12.9 | 0.00 | 1.70 | 1.27 | 74 | 1012.1 |
| 20260506193054 | 15 | 238 | 1.6 | 11.3 | 0.00 | 1.70 | 1.27 | 73 | 1011.9 |
| 20260506191549 | 15 | 207 | 6.4 | 14.5 | 0.00 | 1.70 | 1.27 | 72 | 1011.5 |
| 20260506190047 | 15 | 184 | 6.4 | 16.1 | 0.00 | 1.70 | 1.27 | 71 | 1011.3 |
| 20260506184550 | 15 | 264 | 3.2 | 14.5 | 0.00 | 1.70 | 1.27 | 70 | 1011.1 |
| 20260506183043 | 16 | 229 | 4.8 | 9.7 | 0.00 | 1.70 | 1.27 | 67 | 1010.8 |
| 20260506181543 | 16 | 229 | 6.4 | 19.3 | 0.00 | 1.70 | 1.27 | 63 | 1010.7 |
| 20260506180043 | 17 | 212 | 6.4 | 16.1 | 0.00 | 1.70 | 1.27 | 64 | 1010.5 |
| 20260506174542 | 17 | 281 | 9.7 | 20.9 | 0.00 | 1.70 | 1.27 | 65 | 1010.5 |
| 20260506173056 | 17 | 227 | 8.0 | 16.1 | 0.00 | 1.70 | 1.27 | 63 | 1010.3 |
| 20260506171551 | 18 | 230 | 6.4 | 16.1 | 0.00 | 1.70 | 1.27 | 61 | 1010.2 |
| 20260506170039 | 18 | 209 | 8.0 | 20.9 | 0.00 | 1.70 | 1.27 | 60 | 1010.2 |
| 20260506164540 | 18 | 206 | 11.3 | 20.9 | 0.00 | 1.70 | 1.27 | 57 | 1010.1 |
| 20260506163052 | 18 | 234 | 4.8 | 20.9 | 0.00 | 1.70 | 1.27 | 56 | 1010.1 |
| 20260506161542 | 18 | 194 | 8.0 | 20.9 | 0.00 | 1.70 | 1.27 | 56 | 1010.0 |